Time,TemperatureF,DewpointF,PressureIn,WindDirection,WindDirectionDegrees,WindSpeedMPH,WindSpeedGustMPH,Humidity,HourlyPrecipIn,Conditions,Clouds,dailyrainin,SoftwareType,DateUTC
2013-10-30 00:08:00,44.5,40.0,30.33,SSE,155,0.0,1.0,83,0.00,,,0.00,weatherlink.com 1.10,2013-10-30 04:08:00,
2013-10-30 00:23:00,44.0,40.0,30.32,SSE,155,0.0,0.0,85,0.00,,,0.00,weatherlink.com 1.10,2013-10-30 04:23:00,
2013-10-30 00:38:00,43.6,39.0,30.32,SSE,155,0.0,0.0,85,0.00,,,0.00,weatherlink.com 1.10,2013-10-30 04:38:00,
2013-10-30 00:53:00,44.1,40.0,30.31,SSE,155,0.0,1.0,86,0.00,,,0.00,weatherlink.com 1.10,2013-10-30 04:53:00,
2013-10-30 01:08:00,43.7,40.0,30.31,SSE,155,0.0,0.0,86,0.00,,,0.00,weatherlink.com 1.10,2013-10-30 05:08:00,
2013-10-30 01:23:00,43.5,40.0,30.30,SSE,155,0.0,0.0,87,0.00,,,0.00,weatherlink.com 1.10,2013-10-30 05:23:00,
2013-10-30 01:38:00,43.0,39.0,30.30,SSE,155,0.0,1.0,87,0.00,,,0.00,weatherlink.com 1.10,2013-10-30 05:38:00,
2013-10-30 01:54:00,43.3,40.0,30.30,SSE,155,0.0,0.0,88,0.00,,,0.00,weatherlink.com 1.10,2013-10-30 05:54:00,
2013-10-30 02:09:00,43.7,40.0,30.29,SSE,155,0.0,1.0,87,0.00,,,0.00,weatherlink.com 1.10,2013-10-30 06:09:00,
2013-10-30 02:24:00,43.9,40.0,30.29,SSE,155,0.0,0.0,87,0.00,,,0.00,weatherlink.com 1.10,2013-10-30 06:24:00,
2013-10-30 02:39:00,43.7,40.0,30.29,SSE,155,0.0,0.0,87,0.00,,,0.00,weatherlink.com 1.10,2013-10-30 06:39:00,
2013-10-30 02:54:00,44.0,41.0,30.28,SSE,155,0.0,1.0,88,0.00,,,0.00,weatherlink.com 1.10,2013-10-30 06:54:00,
2013-10-30 03:09:00,-999.0,-99.9,30.28,North,-999,-999.0,-999.0,-999,0.00,,,0.00,weatherlink.com 1.10,2013-10-30 07:09:00,
2013-10-30 03:24:00,-999.0,-99.9,30.28,North,-999,-999.0,-999.0,-999,0.00,,,0.00,weatherlink.com 1.10,2013-10-30 07:24:00,
2013-10-30 03:39:00,-999.0,-99.9,30.27,North,-999,-999.0,-999.0,-999,0.00,,,0.00,weatherlink.com 1.10,2013-10-30 07:39:00,
2013-10-30 03:54:00,-999.0,-99.9,30.27,North,-999,-999.0,-999.0,-999,0.00,,,0.00,weatherlink.com 1.10,2013-10-30 07:54:00,
2013-10-30 04:09:00,-999.0,-99.9,30.26,North,-999,-999.0,-999.0,-999,0.00,,,0.00,weatherlink.com 1.10,2013-10-30 08:09:00,
2013-10-30 04:24:00,-999.0,-99.9,30.26,North,-999,-999.0,-999.0,-999,0.00,,,0.00,weatherlink.com 1.10,2013-10-30 08:24:00,
2013-10-30 04:39:00,-999.0,-99.9,30.27,North,-999,-999.0,-999.0,-999,0.00,,,0.00,weatherlink.com 1.10,2013-10-30 08:39:00,
2013-10-30 04:54:00,-999.0,-99.9,30.27,North,-999,-999.0,-999.0,-999,0.00,,,0.00,weatherlink.com 1.10,2013-10-30 08:54:00,
2013-10-30 05:09:00,-999.0,-99.9,30.26,North,-999,-999.0,-999.0,-999,0.00,,,0.00,weatherlink.com 1.10,2013-10-30 09:09:00,
2013-10-30 05:24:00,-999.0,-99.9,30.26,North,-999,-999.0,-999.0,-999,0.00,,,0.00,weatherlink.com 1.10,2013-10-30 09:24:00,
2013-10-30 05:39:00,-999.0,-99.9,30.25,North,-999,-999.0,-999.0,-999,0.00,,,0.00,weatherlink.com 1.10,2013-10-30 09:39:00,
2013-10-30 05:54:00,-999.0,-99.9,30.25,North,-999,-999.0,-999.0,-999,0.00,,,0.00,weatherlink.com 1.10,2013-10-30 09:54:00,
2013-10-30 06:09:00,-999.0,-99.9,30.25,North,-999,-999.0,-999.0,-999,0.00,,,0.00,weatherlink.com 1.10,2013-10-30 10:09:00,
2013-10-30 06:25:00,-999.0,-99.9,30.25,North,-999,-999.0,-999.0,-999,0.00,,,0.00,weatherlink.com 1.10,2013-10-30 10:25:00,
2013-10-30 06:40:00,-999.0,-99.9,30.25,North,-999,-999.0,-999.0,-999,0.00,,,0.00,weatherlink.com 1.10,2013-10-30 10:40:00,
2013-10-30 06:55:00,-999.0,-99.9,30.26,North,-999,-999.0,-999.0,-999,0.00,,,0.00,weatherlink.com 1.10,2013-10-30 10:55:00,
2013-10-30 07:10:00,-999.0,-99.9,30.26,North,-999,-999.0,-999.0,-999,0.00,,,0.00,weatherlink.com 1.10,2013-10-30 11:10:00,
2013-10-30 07:25:00,-999.0,-99.9,30.26,North,-999,-999.0,-999.0,-999,0.00,,,0.00,weatherlink.com 1.10,2013-10-30 11:25:00,
2013-10-30 07:40:00,-999.0,-99.9,30.26,North,-999,-999.0,-999.0,-999,0.00,,,0.00,weatherlink.com 1.10,2013-10-30 11:40:00,
2013-10-30 07:55:00,-999.0,-99.9,30.26,North,-999,-999.0,-999.0,-999,0.00,,,0.00,weatherlink.com 1.10,2013-10-30 11:55:00,
2013-10-30 08:10:00,-999.0,-99.9,30.26,North,-999,-999.0,-999.0,-999,0.00,,,0.00,weatherlink.com 1.10,2013-10-30 12:10:00,
2013-10-30 08:25:00,48.0,43.0,30.27,WSW,242,0.0,0.0,84,0.00,,,0.00,weatherlink.com 1.10,2013-10-30 12:25:00,
2013-10-30 08:40:00,49.0,44.0,30.27,WSW,242,0.0,0.0,84,0.00,,,0.00,weatherlink.com 1.10,2013-10-30 12:40:00,
2013-10-30 08:55:00,50.1,46.0,30.26,SW,218,0.0,1.0,85,0.00,,,0.00,weatherlink.com 1.10,2013-10-30 12:55:00,
2013-10-30 09:30:00,52.0,46.0,30.25,SSE,155,1.0,2.0,80,0.00,,,0.00,weatherlink.com 1.10,2013-10-30 13:30:00,
2013-10-30 09:41:00,52.6,47.0,30.25,SSW,203,1.0,2.0,80,0.00,,,0.00,weatherlink.com 1.10,2013-10-30 13:41:00,
2013-10-30 09:56:00,53.1,46.0,30.25,North,11,0.0,1.0,78,0.00,,,0.00,weatherlink.com 1.10,2013-10-30 13:56:00,
2013-10-30 10:11:00,53.3,46.0,30.25,NW,312,0.0,3.0,76,0.00,,,0.00,weatherlink.com 1.10,2013-10-30 14:11:00,
2013-10-30 10:26:00,54.2,46.0,30.25,NW,306,1.0,3.0,74,0.00,,,0.00,weatherlink.com 1.10,2013-10-30 14:26:00,
2013-10-30 10:41:00,55.0,46.0,30.25,WNW,289,1.0,7.0,72,0.00,,,0.00,weatherlink.com 1.10,2013-10-30 14:41:00,
2013-10-30 10:56:00,55.3,44.0,30.25,WNW,294,4.0,10.0,67,0.00,,,0.00,weatherlink.com 1.10,2013-10-30 14:56:00,
2013-10-30 11:11:00,55.8,44.0,30.25,NNW,348,0.0,9.0,64,0.00,,,0.00,weatherlink.com 1.10,2013-10-30 15:11:00,
2013-10-30 11:26:00,56.1,43.0,30.25,NNW,335,1.0,7.0,63,0.00,,,0.00,weatherlink.com 1.10,2013-10-30 15:26:00,
2013-10-30 11:41:00,55.0,45.0,30.25,West,263,2.0,4.0,70,0.00,,,0.00,weatherlink.com 1.10,2013-10-30 15:41:00,
2013-10-30 11:56:00,54.9,46.0,30.25,NNE,25,3.0,6.0,72,0.00,,,0.00,weatherlink.com 1.10,2013-10-30 15:56:00,
2013-10-30 12:11:00,54.6,46.0,30.25,NNW,341,0.0,9.0,74,0.00,,,0.00,weatherlink.com 1.10,2013-10-30 16:11:00,
2013-10-30 12:26:00,55.1,46.0,30.24,NNW,347,0.0,6.0,72,0.00,,,0.00,weatherlink.com 1.10,2013-10-30 16:26:00,
2013-10-30 12:41:00,55.8,46.0,30.23,West,281,4.0,5.0,69,0.00,,,0.00,weatherlink.com 1.10,2013-10-30 16:41:00,
2013-10-30 12:56:00,56.5,46.0,30.22,SSE,156,0.0,6.0,68,0.00,,,0.00,weatherlink.com 1.10,2013-10-30 16:56:00,
2013-10-30 13:11:00,56.5,46.0,30.22,SSW,200,4.0,6.0,68,0.00,,,0.00,weatherlink.com 1.10,2013-10-30 17:11:00,
2013-10-30 13:26:00,56.2,46.0,30.21,WNW,283,2.0,7.0,68,0.00,,,0.00,weatherlink.com 1.10,2013-10-30 17:26:00,
2013-10-30 13:41:00,57.4,46.0,30.20,SW,235,2.0,6.0,67,0.00,,,0.00,weatherlink.com 1.10,2013-10-30 17:41:00,
2013-10-30 13:56:00,57.4,46.0,30.19,SSE,152,2.0,10.0,67,0.00,,,0.00,weatherlink.com 1.10,2013-10-30 17:56:00,
2013-10-30 14:12:00,57.6,47.0,30.19,SW,221,3.0,10.0,68,0.00,,,0.00,weatherlink.com 1.10,2013-10-30 18:12:00,
2013-10-30 14:27:00,58.1,47.0,30.19,NW,308,2.0,12.0,67,0.00,,,0.00,weatherlink.com 1.10,2013-10-30 18:27:00,
2013-10-30 14:42:00,58.1,48.0,30.18,WSW,242,2.0,9.0,69,0.00,,,0.00,weatherlink.com 1.10,2013-10-30 18:42:00,
2013-10-30 14:57:00,57.9,48.0,30.18,North,354,2.0,11.0,69,0.00,,,0.00,weatherlink.com 1.10,2013-10-30 18:57:00,
2013-10-30 15:12:00,57.6,47.0,30.18,West,264,9.0,12.0,69,0.00,,,0.00,weatherlink.com 1.10,2013-10-30 19:12:00,
2013-10-30 15:27:00,58.0,48.0,30.18,NW,306,4.0,12.0,69,0.00,,,0.00,weatherlink.com 1.10,2013-10-30 19:27:00,
2013-10-30 15:42:00,58.4,49.0,30.17,West,270,4.0,9.0,70,0.00,,,0.00,weatherlink.com 1.10,2013-10-30 19:42:00,
2013-10-30 15:57:00,58.3,49.0,30.17,SW,229,3.0,9.0,70,0.00,,,0.00,weatherlink.com 1.10,2013-10-30 19:57:00,
2013-10-30 16:12:00,57.3,48.0,30.16,West,263,1.0,7.0,71,0.00,,,0.00,weatherlink.com 1.10,2013-10-30 20:12:00,
2013-10-30 16:27:00,56.8,49.0,30.17,West,280,1.0,6.0,74,0.00,,,0.00,weatherlink.com 1.10,2013-10-30 20:27:00,
2013-10-30 16:42:00,56.7,49.0,30.17,WSW,255,2.0,8.0,74,0.00,,,0.00,weatherlink.com 1.10,2013-10-30 20:42:00,
2013-10-30 16:57:00,56.3,48.0,30.16,West,266,0.0,4.0,75,0.00,,,0.00,weatherlink.com 1.10,2013-10-30 20:57:00,
2013-10-30 17:12:00,56.2,49.0,30.16,WSW,247,2.0,8.0,76,0.00,,,0.00,weatherlink.com 1.10,2013-10-30 21:12:00,
2013-10-30 17:27:00,56.2,49.0,30.17,NE,34,0.0,6.0,76,0.00,,,0.00,weatherlink.com 1.10,2013-10-30 21:27:00,
2013-10-30 17:42:00,56.2,49.0,30.17,SW,225,0.0,5.0,77,0.00,,,0.00,weatherlink.com 1.10,2013-10-30 21:42:00,
2013-10-30 17:57:00,56.2,49.0,30.17,SW,226,1.0,5.0,78,0.00,,,0.00,weatherlink.com 1.10,2013-10-30 21:57:00,
2013-10-30 18:12:00,56.1,49.0,30.17,SW,235,0.0,5.0,78,0.00,,,0.00,weatherlink.com 1.10,2013-10-30 22:12:00,
2013-10-30 18:27:00,56.2,50.0,30.18,West,276,2.0,5.0,79,0.00,,,0.00,weatherlink.com 1.10,2013-10-30 22:27:00,
2013-10-30 18:42:00,56.1,49.0,30.18,SW,221,0.0,5.0,78,0.00,,,0.00,weatherlink.com 1.10,2013-10-30 22:42:00,
2013-10-30 18:57:00,56.1,50.0,30.18,WSW,242,2.0,2.0,79,0.00,,,0.00,weatherlink.com 1.10,2013-10-30 22:57:00,
2013-10-30 19:12:00,56.1,50.0,30.18,SW,236,0.0,2.0,79,0.00,,,0.00,weatherlink.com 1.10,2013-10-30 23:12:00,
2013-10-30 19:27:00,55.9,50.0,30.18,SW,235,0.0,3.0,79,0.00,,,0.00,weatherlink.com 1.10,2013-10-30 23:27:00,
2013-10-30 19:42:00,55.6,50.0,30.18,SW,224,0.0,1.0,80,0.00,,,0.00,weatherlink.com 1.10,2013-10-30 23:42:00,
2013-10-30 19:57:00,55.1,49.0,30.19,WNW,291,0.0,1.0,81,0.00,,,0.00,weatherlink.com 1.10,2013-10-30 23:57:00,
2013-10-30 20:12:00,54.4,49.0,30.19,WSW,253,0.0,1.0,82,0.00,,,0.00,weatherlink.com 1.10,2013-10-31 00:12:00,
2013-10-30 20:27:00,53.8,49.0,30.20,WSW,250,1.0,1.0,84,0.00,,,0.00,weatherlink.com 1.10,2013-10-31 00:27:00,
2013-10-30 20:42:00,53.4,49.0,30.20,WSW,253,0.0,0.0,84,0.00,,,0.00,weatherlink.com 1.10,2013-10-31 00:42:00,
2013-10-30 20:57:00,52.7,48.0,30.19,WSW,253,0.0,0.0,85,0.00,,,0.00,weatherlink.com 1.10,2013-10-31 00:57:00,
2013-10-30 21:12:00,52.2,48.0,30.20,SW,236,0.0,1.0,86,0.00,,,0.00,weatherlink.com 1.10,2013-10-31 01:12:00,
2013-10-30 21:27:00,51.3,48.0,30.20,WSW,237,0.0,0.0,87,0.00,,,0.00,weatherlink.com 1.10,2013-10-31 01:27:00,
2013-10-30 21:42:00,51.5,48.0,30.20,West,268,0.0,1.0,88,0.00,,,0.00,weatherlink.com 1.10,2013-10-31 01:42:00,
2013-10-30 21:57:00,51.9,49.0,30.20,West,268,0.0,1.0,89,0.00,,,0.00,weatherlink.com 1.10,2013-10-31 01:57:00,
2013-10-30 22:13:00,52.2,49.0,30.21,West,269,0.0,0.0,89,0.00,,,0.00,weatherlink.com 1.10,2013-10-31 02:13:00,
2013-10-30 22:28:00,53.2,50.0,30.21,NNW,348,0.0,1.0,90,0.00,,,0.00,weatherlink.com 1.10,2013-10-31 02:28:00,
2013-10-30 22:43:00,54.2,51.0,30.21,NNE,23,4.0,4.0,88,0.00,,,0.00,weatherlink.com 1.10,2013-10-31 02:43:00,
2013-10-30 22:58:00,54.5,50.0,30.21,NW,316,1.0,3.0,85,0.00,,,0.00,weatherlink.com 1.10,2013-10-31 02:58:00,
2013-10-30 23:13:00,53.8,50.0,30.20,NNW,333,0.0,1.0,86,0.00,,,0.00,weatherlink.com 1.10,2013-10-31 03:13:00,
2013-10-30 23:28:00,53.8,49.0,30.20,WSW,246,0.0,1.0,85,0.00,,,0.00,weatherlink.com 1.10,2013-10-31 03:28:00,
2013-10-30 23:43:00,52.0,48.0,30.20,SW,214,0.0,1.0,87,0.00,,,0.00,weatherlink.com 1.10,2013-10-31 03:43:00,
2013-10-30 23:58:00,52.2,49.0,30.19,South,174,1.0,3.0,88,0.00,,,0.00,weatherlink.com 1.10,2013-10-31 03:58:00,